sat.trackr.live / text

‹ back to catalog

QIANFAN-109

NORAD 68636 · 2026-075A

PAYLOAD ACTIVE UNKNOWN

§ Identity

Operator
Country
PRC
Launch date
2026-04-07
Launch site
WSC
Launch vehicle
Mass (kg)
RCS (m²)

External: N2YO · Heavens-Above · Gunter

§ Orbital elements

Epoch: 2026-05-24T17:39:21.303072Z

Period
105.48 min
Inclination
88.9878°
Eccentricity
0.0011681
Mean motion
13.65209094 rev/d
Perigee alt
1,008.2 km
Apogee alt
1,025.5 km
Semi-major
7,395.0 km
B*
3.9978e-5
RAAN
323.4276°
Arg perigee
66.5483°
Mean anomaly
293.6903°
Rev number
662

§ Raw data

QIANFAN-1091 68636U 26075A   26144.73566323  .00000045  00000+0  39978-4 0  99992 68636  88.9878 323.4276 0011681  66.5483 293.6903 13.65209094  6620

JSON: /api/v1/satellites/68636 · /tle

For live sub-satellite position, see the globe view (requires WebGL).

§ Visibility from observer

Set your observer location to see the next 7 days of passes ≥ 10°. The values pass through the URL so the page stays shareable.

No JS? Fill the form by hand. The geolocation button needs JavaScript.